Location: Waco, TX
(31.5480°N, 97.1670°W)
Time: 00:31:16
(UTC-06:00)

ISS - Pass Details

Date: 08 December 2017
Orbit: 403 x 407 km, 51.6° (Epoch: 12 December)

Event Time Altitude Azimuth Distance (km) Brightness Sun altitude
Rises 21:33:34 0° 316° (NW) 2,322 - -52.0°
Reaches altitude 10° 21:35:39 10° 319° (NW) 1,459 - -52.5°
Maximum altitude 21:38:55 75° 44° (NE) 420 - -53.1°
Drops below altitude 10° 21:42:10 10° 131° (SE) 1,449 - -53.8°
Sets 21:44:14 0° 133° (SE) 2,304 - -54.3°
